Raleigh-Durham Airport, NC

7:04 AM EDT on May 27, 2017 (GMT -0400)
Raleigh-Durham International

Weather History for KRDU - October, 2012

Change the Weather History Date:

Monday, October 8, 2012

  Actual Average Record
Temperature  
Mean Temperature 50 °F 64 °F  
Max Temperature 52 °F 75 °F 94 °F (1941)
Min Temperature 47 °F 53 °F 35 °F (1964)
Degree Days  
Heating Degree Days 15 4  
Month to date heating degree days 23 23  
Since 1 July heating degree days 33 44  
Cooling Degree Days 0 2  
Month to date cooling degree days 45 24  
Year to date cooling degree days 1868 1692  
Moisture  
Dew Point 46 °F    
Average Humidity 82    
Maximum Humidity 93    
Minimum Humidity 71    
Precipitation  
Precipitation 0.38 in 0.11 in 6.45 in (2016)
Month to date precipitation 0.87 0.89  
Year to date precipitation 36.33 34.79  
Sea Level Pressure  
Sea Level Pressure 30.17 in    
Wind  
Wind Speed 8 mph (NNE)    
Max Wind Speed 16 mph    
Max Gust Speed 21 mph    
Visibility 7 miles    
Events Rain , Thunderstorm    
T = Trace of Precipitation, MM = Missing Value Source: NWS Daily Summary

Daily Weather History Graph

Daily Weather History Graph

Search for Another Location

Airport or City:

Trip Planner

Search our weather history database for the weather conditions in past years. The results will help you decide how hot, cold, wet, or windy it might be!

Date:

Astronomy

Oct. 08, 2012 Rise Set
Actual Time 7:16 AM EDT 6:48 PM EDT
Civil Twilight 6:50 AM EDT 7:13 PM EDT
Nautical Twilight 6:21 AM EDT 7:43 PM EDT
Astronomical Twilight 5:51 AM EDT 8:13 PM EDT
Moon 12:06 AM EDT (10/8) 2:24 PM EDT (10/8)
Length of Visible Light 12h 23m
Length of Day
11h 31m
Waning Gibbous, 46% of the Moon is Illuminated
Oct 8
Waning Gibbous
Oct 15
New
Oct 21
First Quarter
Oct 29
Full
Nov 6
Last Quarter

Hourly Weather History & Observations

Time (EDT) Temp. Windchill Dew Point Humidity Pressure Visibility Wind Dir Wind Speed Gust Speed Precip Events Conditions
12:51 AM 52.0 °F - 48.9 °F 89% 30.16 in 10.0 mi NNE 4.6 mph - N/A   Overcast
1:51 AM 52.0 °F - 48.9 °F 89% 30.16 in 10.0 mi NE 6.9 mph - N/A   Overcast
2:51 AM 52.0 °F - 48.9 °F 89% 30.16 in 10.0 mi Variable 5.8 mph - N/A   Overcast
3:19 AM 51.8 °F - 48.2 °F 88% 30.15 in 10.0 mi NNE 6.9 mph - N/A   Overcast
3:51 AM 51.8 °F - 48.2 °F 88% 30.16 in 10.0 mi NNE 4.6 mph - N/A   Overcast
4:51 AM 52.0 °F - 48.0 °F 86% 30.16 in 10.0 mi NE 8.1 mph - N/A   Overcast
5:51 AM 52.0 °F - 46.9 °F 83% 30.17 in 10.0 mi NE 12.7 mph - N/A   Overcast
6:51 AM 51.1 °F - 45.0 °F 80% 30.19 in 10.0 mi NE 10.4 mph - N/A   Overcast
7:51 AM 51.1 °F - 44.1 °F 77% 30.21 in 10.0 mi NE 9.2 mph 18.4 mph N/A   Overcast
8:51 AM 51.1 °F - 44.1 °F 77% 30.23 in 10.0 mi NE 13.8 mph - N/A   Overcast
9:51 AM 51.1 °F - 42.1 °F 71% 30.24 in 10.0 mi NNE 10.4 mph 17.3 mph N/A   Overcast
10:51 AM 51.1 °F - 42.1 °F 71% 30.21 in 10.0 mi NE 11.5 mph - N/A   Overcast
11:51 AM 50.0 °F - 42.1 °F 74% 30.21 in 10.0 mi NE 11.5 mph - N/A   Overcast
12:13 PM 48.2 °F - 42.8 °F 82% 30.20 in 2.0 mi NNE 9.2 mph - 0.01 in Rain Rain
12:30 PM 48.2 °F - 44.6 °F 87% 30.20 in 2.0 mi Variable 4.6 mph - 0.08 in Rain , Thunderstorm Thunderstorms and Rain
12:51 PM 48.0 °F - 45.0 °F 89% 30.19 in 2.0 mi North 6.9 mph - 0.11 in Rain , Thunderstorm Light Thunderstorms and Rain
1:00 PM 48.2 °F - 44.6 °F 87% 30.20 in 6.0 mi Variable 5.8 mph - 0.00 in Rain , Thunderstorm Light Thunderstorms and Rain
1:31 PM 48.2 °F - 44.6 °F 87% 30.19 in 10.0 mi NNE 6.9 mph - 0.00 in   Overcast
1:51 PM 48.0 °F - 44.1 °F 86% 30.18 in 10.0 mi NNE 8.1 mph - 0.00 in   Overcast
2:24 PM 46.4 °F 43.5 °F 44.6 °F 93% 30.17 in 4.0 mi Variable 5.8 mph - 0.02 in Rain Rain
2:51 PM 46.9 °F - 45.0 °F 93% 30.15 in 3.0 mi NNE 9.2 mph - 0.07 in Rain Light Rain
3:11 PM 48.2 °F - 44.6 °F 87% 30.16 in 1.0 mi NNE 6.9 mph - 0.01 in Rain Rain
3:51 PM 48.0 °F - 46.0 °F 93% 30.15 in 1.0 mi NNE 6.9 mph - 0.15 in Rain Light Rain
4:35 PM 48.2 °F - 46.4 °F 93% 30.14 in 2.0 mi NE 8.1 mph 16.1 mph 0.04 in Rain Light Rain
4:51 PM 48.9 °F - 46.0 °F 90% 30.14 in 2.0 mi NNE 8.1 mph 17.3 mph 0.04 in Rain Light Rain
5:51 PM 48.9 °F - 46.9 °F 93% 30.16 in 2.0 mi NNE 5.8 mph - 0.00 in   Overcast
6:00 PM 48.2 °F - 46.4 °F 93% 30.15 in 4.0 mi NE 9.2 mph - N/A   Overcast
6:51 PM 50.0 °F - 46.9 °F 89% 30.15 in 6.0 mi NNE 9.2 mph - N/A   Overcast
7:51 PM 50.0 °F - 46.4 °F 87% 30.15 in 10.0 mi NE 6.9 mph - N/A   Overcast
8:51 PM 50.0 °F - 46.4 °F 87% 30.15 in 9.0 mi NNE 5.8 mph - N/A   Overcast
9:51 PM 48.9 °F - 46.9 °F 93% 30.15 in 9.0 mi NNE 8.1 mph - N/A   Overcast
10:51 PM 50.0 °F - 46.9 °F 89% 30.15 in 7.0 mi NNE 5.8 mph - N/A   Overcast
11:51 PM 50.0 °F - 46.9 °F 89% 30.16 in 4.0 mi NNE 4.6 mph - 0.00 in   Light Drizzle